Regional Weather Roundup
Issued by NWS

Home | Current Version | Previous Version | Graphics & Text | Print | Product List | Glossary On
Versions: 1 2 3 4 5 6 7 8 9 10 11 12 13 14 15 16 17 18 19 20 21 22 23 24 25 26 27 28 29 30 31 32 33 34 35 36 37 38 39 40 41 42 43 44 45 46 47 48 49 50
837
ASUS45 KABQ 231801
RWRNM
NEW MEXICO REGIONAL WEATHER ROUNDUP
NATIONAL WEATHER SERVICE ALBUQUERQUE NM
1200 PM MDT MON MAY 23 2016

NOTE: "FAIR" MEANS FEW OR NO CLOUDS BELOW 12,000 FEET AGL WITH NO
       SIGNIFICANT WEATHER OR OBSTRUCTIONS TO VISION.

      THIS PRODUCT IS RELEASED AS TWO VERSIONS.  ONE VERSION NEAR
      THE TOP OF THE HOUR CONTAINING PRELIMINARY DATA FROM ALBUQUERQUE
      AND OTHER STATIONS.  A FINAL VERSION WITH ADDITIONAL DATA IS
      ISSUED ABOUT 10 MINUTES AFTER THE HOUR.

NMZ501-503-504-510>518-231900-
NORTHWEST PLATEAU/NORTHCENTRAL MOUNTAINS

CITY           SKY/WX    TMP DP  RH WIND       PRES   REMARKS
FARMINGTON     FAIR      69  21  16 SW12      29.96F
6HR MIN TEMP:  39; 6HR MAX TEMP:  69;

SANTA FE       FAIR      71  25  17 W14G23    30.02F
6HR MIN TEMP:  41; 6HR MAX TEMP:  71;

TAOS           FAIR      64  25  22 W15G23    30.04F
ANGEL FIRE     FAIR      58  28  30 SW13G18   30.09F

$$
NMZ402-403-502-505>509-231900-
WESTCENTRAL MOUNTAINS/SOUTHWEST MOUNTAINS

CITY           SKY/WX    TMP DP  RH WIND       PRES   REMARKS
GALLUP         FAIR      66  22  18 SW20G28   30.02F
6HR MIN TEMP:  39; 6HR MAX TEMP:  66;

GRANTS         FAIR      70  25  18 SW9G24    30.04S
SILVER CITY      N/A     75  14   9 W14G21    30.04R

$$
NMZ407-409-411-412-231900-
SOUTHERN DESERTS

CITY           SKY/WX    TMP DP  RH WIND       PRES   REMARKS
LORDSBURG      FAIR      79  27  14 CALM      29.97S
DEMING         FAIR      80  26  13 SW15G23   29.96F
6HR MIN TEMP:  55; 6HR MAX TEMP:  80;

ALAMOGORDO     FAIR      82  21  10 SW10G18   29.94F
T OR C         FAIR      79  20  11 MISG      29.94F
6HR MIN TEMP:  56; 6HR MAX TEMP:  79;


$$
NMZ519>523-231900-
CENTRAL VALLEYS/CENTRAL HIGHLANDS

CITY           SKY/WX    TMP DP  RH WIND       PRES   REMARKS
ALBUQUERQUE    FAIR      72  27  18 VRB5      29.99F
6HR MIN TEMP:  51; 6HR MAX TEMP:  73;

DOUBLE EAGLE   SUNNY     72  28  20 SW6G17    30.02F
CLINES CORNERS FAIR      71  20  14 W23G32    30.03F
6HR MIN TEMP:  43; 6HR MAX TEMP:  71;

BELEN          FAIR      76  23  13 W12       29.97F
6HR MIN TEMP:  50; 6HR MAX TEMP:  77;

SOCORRO        NOT AVBL

$$
NMZ524>526-539-540-231900-
SOUTHCENTRAL MOUNTAINS

CITY           SKY/WX    TMP DP  RH WIND       PRES   REMARKS
RUIDOSO        NOT AVBL

$$
NMZ527>531-231900-
NORTHEAST HIGHLANDS/NORTHEAST PLAINS

CITY           SKY/WX    TMP DP  RH WIND       PRES   REMARKS
LAS VEGAS      FAIR      70  23  17 SW20G32   30.01S
6HR MIN TEMP:  47; 6HR MAX TEMP:  70;

RATON          FAIR      73  27  18 S22       29.93F
6HR MIN TEMP:  42; 6HR MAX TEMP:  73;

CLAYTON        FAIR      74  41  30 NW5       29.92S
6HR MIN TEMP:  52; 6HR MAX TEMP:  75;


$$
NMZ532>537-231900-
EASTCENTRAL PLAINS

CITY           SKY/WX    TMP DP  RH WIND       PRES   REMARKS
TUCUMCARI      FAIR      86  27  11 W8        29.86F
6HR MIN TEMP:  52; 6HR MAX TEMP:  86;

CANNON AFB     NOT AVBL
CLOVIS AIRPORT FAIR      81  36  19 NW8       29.91F

$$
NMZ028-029-538-231900-
SOUTHEAST PLAINS

CITY           SKY/WX    TMP DP  RH WIND       PRES   REMARKS
ROSWELL        FAIR      84  40  21 VRB3      29.87F
6HR MIN TEMP:  60; 6HR MAX TEMP:  85;

ARTESIA        FAIR      88  32  13 VRB7      29.86F
CARLSBAD       FAIR      92  24   8 W18       29.84F
6HR MIN TEMP:  62; 6HR MAX TEMP:  92;

HOBBS          SUNNY     90  27  10 SW17G28   29.89F


$$




USA.gov is the U.S. government's official web portal to all federal, state and local government web resources and services.